GW4015 Weather Reports


time (UTC)temp
F
wind
direction
speed
knots
gust
knots
rain 1hr
in
rain 24hr
in
rain mn
in
humidity
%
barometer
mb
20260504050346 54 54 24.3 32.2 0.00 0.00 0.00 37 1013.7
20260504045843 54 49 23.5 33.0 0.00 0.00 0.00 38 1013.6
20260504045338 55 47 29.5 33.0 0.00 0.00 0.00 38 1013.4
20260504044836 55 49 25.2 33.0 0.00 0.00 0.00 38 1013.2
20260504044333 56 43 17.4 33.0 0.00 0.00 0.00 40 1013.2
20260504043830 56 38 24.3 31.3 0.00 0.00 0.00 39 1012.8
20260504043327 57 40 20.9 28.7 0.00 0.00 0.00 38 1012.7
20260504042824 57 46 16.5 22.6 0.00 0.00 0.00 38 1012.4
20260504042320 57 35 16.5 22.6 0.00 0.00 0.00 38 1012.1
20260504041817 57 48 15.6 22.6 0.00 0.00 0.00 38 1012.0
20260504041313 57 37 13.9 20.9 0.00 0.00 0.00 38 1012.1
20260504040809 57 41 13.0 16.5 0.00 0.00 0.00 38 1011.9
20260504040307 57 41 16.5 20.0 0.00 0.00 0.00 38 1011.9
20260504035803 57 33 16.5 18.2 0.00 0.00 0.00 38 1011.8
20260504035300 57 50 9.6 17.4 0.00 0.00 0.00 37 1011.7
20260504034757 58 38 13.0 20.0 0.00 0.00 0.00 37 1011.5
20260504034255 58 45 16.5 18.2 0.00 0.00 0.00 36 1011.3
20260504033752 58 41 13.9 20.0 0.00 0.00 0.00 36 1011.3
20260504033249 59 39 14.8 20.0 0.00 0.00 0.00 36 1011.2
20260504032746 59 53 19.1 21.7 0.00 0.00 0.00 35 1011.1
20260504032243 59 44 18.2 21.7 0.00 0.00 0.00 35 1010.8
20260504031740 59 51 14.8 20.0 0.00 0.00 0.00 35 1010.9
20260504031237 60 45 16.5 23.5 0.00 0.00 0.00 35 1011.0
20260504030733 60 47 18.2 25.2 0.00 0.00 0.00 34 1011.0
20260504030230 60 45 17.4 24.3 0.00 0.00 0.00 34 1010.7
20260504025727 61 38 14.8 23.5 0.00 0.00 0.00 33 1010.8
20260504025224 61 37 20.0 23.5 0.00 0.00 0.00 33 1010.7
20260504024721 62 44 17.4 24.3 0.00 0.00 0.00 32 1010.5
20260504024217 62 40 16.5 22.6 0.00 0.00 0.00 30 1010.5
20260504023714 62 39 14.8 17.4 0.00 0.00 0.00 30 1010.7
20260504023210 63 44 15.6 17.4 0.00 0.00 0.00 29 1010.5
20260504022706 64 39 14.8 17.4 0.00 0.00 0.00 28 1010.7
20260504022203 64 38 11.3 15.6 0.00 0.00 0.00 27 1010.7
20260504021700 65 31 12.2 16.5 0.00 0.00 0.00 26 1010.5
20260504021157 65 26 7.8 10.4 0.00 0.00 0.00 23 1010.6
20260504020654 66 19 7.0 9.6 0.00 0.00 0.00 23 1010.5
20260504020149 66 16 7.8 8.7 0.00 0.00 0.00 22 1010.5
20260504015646 67 14 5.2 9.6 0.00 0.00 0.00 21 1010.5
20260504015137 68 3 7.8 12.2 0.00 0.00 0.00 21 1010.7
20260504014633 68 5 7.0 11.3 0.00 0.00 0.00 21 1010.6
20260504014130 69 7 11.3 13.0 0.00 0.00 0.00 20 1010.6
20260504013628 70 354 7.0 13.9 0.00 0.00 0.00 20 1010.7
20260504013124 71 358 8.7 13.0 0.00 0.00 0.00 19 1010.9
20260504012622 71 5 10.4 13.0 0.00 0.00 0.00 19 1010.7
20260504012120 71 359 7.8 13.0 0.00 0.00 0.00 19 1010.8
20260504011616 71 8 11.3 14.8 0.00 0.00 0.00 19 1010.8
20260504011113 71 357 11.3 16.5 0.00 0.00 0.00 19 1010.7
20260504010609 72 2 7.8 16.5 0.00 0.00 0.00 19 1010.7
20260504010105 72 343 13.9 17.4 0.00 0.00 0.00 19 1010.5
20260504005602 72 347 14.8 16.5 0.00 0.00 0.00 19 1010.8
20260504005059 72 350 13.0 19.1 0.00 0.00 0.00 19 1010.7
20260504004557 73 341 8.7 18.2 0.00 0.00 0.00 19 1010.8
20260504004054 73 326 11.3 17.4 0.00 0.00 0.00 19 1010.9
20260504003549 73 344 10.4 18.2 0.00 0.00 0.00 19 1010.9
20260504003046 73 335 13.9 18.2 0.00 0.00 0.00 19 1010.8
20260504002543 72 336 18.2 20.0 0.00 0.00 0.00 19 1010.9
20260504002041 73 352 13.9 15.6 0.00 0.00 0.00 19 1011.0
20260504001538 73 333 20.0 20.9 0.00 0.00 0.00 19 1011.1
20260504001034 73 326 14.8 20.0 0.00 0.00 0.00 19 1011.2
20260504000532 73 347 16.5 24.3 0.00 0.00 0.00 18 1011.1
20260504000029 73 317 19.1 24.3 0.00 0.00 0.00 19 1011.0
20260503235527 74 350 13.0 15.6 0.00 0.00 0.00 19 1011.1
20260503235024 73 347 14.8 21.7 0.00 0.00 0.00 19 1011.0
20260503234521 74 331 20.9 26.1 0.00 0.00 0.00 19 1011.1
20260503234020 73 321 10.4 15.6 0.00 0.00 0.00 19 1011.1
20260503233515 73 322 13.9 20.0 0.00 0.00 0.00 19 1011.3
20260503233012 73 4 10.4 14.8 0.00 0.00 0.00 19 1010.9
20260503232509 74 334 14.8 20.9 0.00 0.00 0.00 19 1011.1
20260503232006 73 320 19.1 23.5 0.00 0.00 0.00 19 1011.2
20260503231504 73 298 16.5 17.4 0.00 0.00 0.00 19 1011.1
20260503231000 73 324 9.6 24.3 0.00 0.00 0.00 19 1011.2
20260503230457 73 293 10.4 18.2 0.00 0.00 0.00 19 1011.2
20260503225954 73 306 16.5 22.6 0.00 0.00 0.00 19 1011.0
20260503225451 74 308 19.1 24.3 0.00 0.00 0.00 18 1011.3
20260503224946 73 323 16.5 17.4 0.00 0.00 0.00 19 1011.3
20260503224444 75 323 17.4 20.0 0.00 0.00 0.00 19 1011.3
20260503223942 73 303 9.6 16.5 0.00 0.00 0.00 19 1011.5
20260503223439 74 294 10.4 25.2 0.00 0.00 0.00 19 1011.6
20260503222934 73 304 9.6 15.6 0.00 0.00 0.00 19 1011.5
20260503222433 73 309 9.6 16.5 0.00 0.00 0.00 19 1011.6
20260503221931 73 342 12.2 18.2 0.00 0.00 0.00 19 1011.5
20260503221429 73 326 14.8 21.7 0.00 0.00 0.00 19 1011.8
20260503220926 74 277 16.5 24.3 0.00 0.00 0.00 18 1011.7
20260503220422 75 299 14.8 25.2 0.00 0.00 0.00 19 1011.8
20260503215919 73 284 13.0 16.5 0.00 0.00 0.00 19 1011.9
20260503215416 73 293 18.2 22.6 0.00 0.00 0.00 19 1011.9
20260503214914 73 299 13.9 18.2 0.00 0.00 0.00 19 1011.9
20260503214411 73 327 9.6 15.6 0.00 0.00 0.00 20 1011.9
20260503213909 72 296 8.7 18.2 0.00 0.00 0.00 20 1012.1
20260503213406 73 315 7.8 17.4 0.00 0.00 0.00 21 1012.0
20260503212903 73 301 8.7 17.4 0.00 0.00 0.00 20 1012.2
20260503212400 72 325 13.0 20.0 0.00 0.00 0.00 20 1012.2
20260503211857 72 320 16.5 20.9 0.00 0.00 0.00 20 1012.2
20260503211354 73 303 13.0 18.2 0.00 0.00 0.00 20 1012.4
20260503210849 73 328 13.0 20.0 0.00 0.00 0.00 20 1012.4
20260503210347 73 311 20.0 22.6 0.00 0.00 0.00 20 1012.7
20260503205842 72 357 7.0 14.8 0.00 0.00 0.00 21 1012.7
20260503205339 72 304 15.6 23.5 0.00 0.00 0.00 20 1012.9
20260503204835 71 330 8.7 16.5 0.00 0.00 0.00 21 1012.8
20260503204332 72 305 6.1 12.2 0.00 0.00 0.00 20 1012.9
20260503203829 73 259 13.0 14.8 0.00 0.00 0.00 20 1012.8
20260503203327 71 326 13.0 20.0 0.00 0.00 0.00 20 1012.9
20260503202824 71 356 14.8 18.2 0.00 0.00 0.00 20 1013.0
20260503202322 71 291 18.2 22.6 0.00 0.00 0.00 20 1013.1
20260503201820 71 294 12.2 18.2 0.00 0.00 0.00 20 1013.1
20260503201316 71 1 7.0 16.5 0.00 0.00 0.00 21 1013.3
20260503200814 70 276 7.0 13.9 0.00 0.00 0.00 21 1013.2
20260503200310 71 336 12.2 23.5 0.00 0.00 0.00 20 1013.3
20260503195807 70 272 9.6 9.6 0.00 0.00 0.00 21 1013.6
20260503195304 70 304 17.4 21.7 0.00 0.00 0.00 21 1013.6
20260503194801 73 346 15.6 18.2 0.00 0.00 0.00 19 1013.6
20260503194256 70 321 13.9 20.0 0.00 0.00 0.00 21 1013.7
20260503193753 71 316 8.7 13.0 0.00 0.00 0.00 21 1013.8
20260503193249 72 298 15.6 25.2 0.00 0.00 0.00 19 1013.8
20260503192745 70 347 11.3 16.5 0.00 0.00 0.00 20 1013.8
20260503192240 71 310 8.7 15.6 0.00 0.00 0.00 21 1013.8
20260503191737 69 313 11.3 23.5 0.00 0.00 0.00 20 1014.0
20260503191234 71 330 13.9 20.0 0.00 0.00 0.00 20 1013.9
20260503190731 71 282 11.3 18.2 0.00 0.00 0.00 20 1014.0
20260503190228 69 343 4.3 8.7 0.00 0.00 0.00 22 1014.1
20260503185725 69 315 8.7 13.0 0.00 0.00 0.00 22 1014.2
20260503185221 69 306 20.0 20.0 0.00 0.00 0.00 22 1014.2
20260503184715 70 331 13.0 13.9 0.00 0.00 0.00 21 1014.2
20260503184212 69 312 7.8 20.0 0.00 0.00 0.00 21 1014.4
20260503183709 70 314 12.2 15.6 0.00 0.00 0.00 21 1014.4
20260503183206 70 307 7.8 19.1 0.00 0.00 0.00 21 1014.4
20260503182704 69 315 8.7 14.8 0.00 0.00 0.00 22 1014.8
20260503182202 71 300 13.0 18.2 0.00 0.00 0.00 21 1014.3
20260503181658 71 306 11.3 19.1 0.00 0.00 0.00 21 1014.5
20260503181155 69 347 9.6 13.0 0.00 0.00 0.00 22 1014.7
20260503180652 70 293 9.6 15.6 0.00 0.00 0.00 22 1014.9
20260503180150 69 247 11.3 13.9 0.00 0.00 0.00 23 1014.5
20260503175647 68 266 13.0 20.9 0.00 0.00 0.00 21 1014.8
20260503175144 70 302 13.0 23.5 0.00 0.00 0.00 21 1015.0
20260503174640 69 287 7.8 17.4 0.00 0.00 0.00 23 1015.1
20260503174138 69 285 11.3 16.5 0.00 0.00 0.00 23 1015.0
20260503173632 70 305 17.4 20.9 0.00 0.00 0.00 23 1015.0
20260503173129 68 331 11.3 15.6 0.00 0.00 0.00 23 1015.1
20260503172627 69 319 14.8 19.1 0.00 0.00 0.00 23 1015.2
20260503172124 68 278 13.0 17.4 0.00 0.00 0.00 22 1015.2
20260503171620 69 325 9.6 16.5 0.00 0.00 0.00 22 1015.1
20260503171117 70 296 13.0 17.4 0.00 0.00 0.00 22 1015.1
20260503170615 70 343 15.6 16.5 0.00 0.00 0.00 21 1015.3
20260503170111 68 307 11.3 17.4 0.00 0.00 0.00 23 1015.4
20260503151000 59 251 7.8 13.9 0.00 0.00 0.00 48 1015.8
20260503150457 59 260 7.8 12.2 0.00 0.00 0.00 50 1016.0
20260503131350 48 41 0.0 0.9 0.00 0.00 0.00 71 1016.4
20260503130847 49 88 0.9 1.7 0.00 0.00 0.00 68 1016.2
20260503130345 49 98 0.9 1.7 0.00 0.00 0.00 69 1016.3
20260503110739 42 5 1.7 3.5 0.00 0.00 0.00 81 1017.3
20260503110236 42 6 0.9 2.6 0.00 0.00 0.00 80 1017.3
20260503100202 41 339 5.2 5.2 0.00 0.00 0.00 80 1017.5
20260503090121 42 64 0.0 2.6 0.00 0.00 0.00 77 1017.9
20260503081556 46 102 0.0 0.0 0.00 0.00 0.00 71 1018.1
20260503081053 46 160 0.9 1.7 0.00 0.00 0.00 74 1018.0
20260503080549 43 83 1.7 3.5 0.00 0.00 0.00 73 1018.4